Weather History for KBRL - October, 2012

Change the Weather History Date:

Friday, October 5, 2012

  Actual Average Record
Temperature  
Mean Temperature 39 °F 59 °F  
Max Temperature 46 °F 71 °F 89 °F (2007)
Min Temperature 32 °F 48 °F 31 °F (2004)
Degree Days  
Heating Degree Days 26 7  
Month to date heating degree days 52 32  
Since 1 July heating degree days 178 103  
Cooling Degree Days 0 1  
Month to date cooling degree days 0 8  
Year to date cooling degree days 1272 1190  
Moisture  
Dew Point 34 °F    
Average Humidity 73    
Maximum Humidity 92    
Minimum Humidity 53    
Precipitation  
Precipitation T in 0.10 in 2.17 in (1998)
Month to date precipitation 0.40 0.56  
Year to date precipitation 18.14 31.33  
Sea Level Pressure  
Sea Level Pressure 30.22 in    
Wind  
Wind Speed 7 mph (NW)    
Max Wind Speed 21 mph    
Max Gust Speed 29 mph    
Visibility 10 miles    
Events Rain    
T = Trace of Precipitation, MM = Missing Value Source: NWS Daily Summary

Daily Weather History Graph

Daily Weather History Graph

Search for Another Location

Airport or City:

Trip Planner

Search our weather history database for the weather conditions in past years. The results will help you decide how hot, cold, wet, or windy it might be!

Date:

Astronomy

Oct. 05, 2012 Rise Set
Actual Time 7:05 AM CDT 6:39 PM CDT
Civil Twilight 6:38 AM CDT 7:06 PM CDT
Nautical Twilight 6:06 AM CDT 7:38 PM CDT
Astronomical Twilight 5:34 AM CDT 8:09 PM CDT
Moon 10:01 PM CDT (10/5) 12:15 PM CDT (10/5)
Length of Visible Light 12h 28m
Length of Day
11h 33m
Waning Gibbous, 74% of the Moon is Illuminated
Oct 5
Waning Gibbous
Oct 8
Last Quarter
Oct 15
New
Oct 21
First Quarter
Oct 29
Full

Hourly Weather History & Observations

Time (CDT) Temp. Windchill Dew Point Humidity Pressure Visibility Wind Dir Wind Speed Gust Speed Precip Events Conditions
12:53 AM 45.0 °F 40.6 °F 41.0 °F 86% 30.20 in 10.0 mi North 8.1 mph - 0.01 in Rain Light Rain
1:53 AM 45.0 °F 40.6 °F 39.0 °F 80% 30.22 in 10.0 mi NNW 8.1 mph - 0.00 in   Mostly Cloudy
2:53 AM 44.6 °F 42.2 °F 37.4 °F 76% 30.23 in 10.0 mi NNW 4.6 mph - N/A   Overcast
3:53 AM 44.1 °F 40.8 °F 37.9 °F 79% 30.24 in 10.0 mi NNW 5.8 mph - N/A   Clear
4:53 AM 42.1 °F 40.2 °F 36.0 °F 79% 30.24 in 10.0 mi NNW 3.5 mph - N/A   Clear
5:53 AM 42.1 °F 38.4 °F 36.0 °F 79% 30.25 in 10.0 mi WNW 5.8 mph - N/A   Scattered Clouds
6:53 AM 42.1 °F 40.2 °F 36.0 °F 79% 30.25 in 10.0 mi NW 3.5 mph - N/A   Overcast
7:53 AM 42.1 °F 37.7 °F 36.0 °F 79% 30.23 in 10.0 mi NNW 6.9 mph - 0.00 in Rain Light Rain
8:53 AM 42.1 °F 38.4 °F 35.1 °F 76% 30.25 in 10.0 mi NNW 5.8 mph - 0.00 in   Overcast
9:53 AM 43.0 °F 38.2 °F 34.0 °F 71% 30.25 in 10.0 mi NNW 8.1 mph - N/A   Overcast
10:53 AM 44.1 °F 41.5 °F 34.0 °F 68% 30.25 in 10.0 mi WNW 4.6 mph - N/A   Overcast
11:53 AM 46.0 °F 43.9 °F 34.0 °F 63% 30.23 in 10.0 mi Variable 4.6 mph - N/A   Overcast
12:53 PM 46.0 °F 41.0 °F 30.9 °F 56% 30.21 in 10.0 mi NW 10.4 mph 18.4 mph N/A   Overcast
1:53 PM 46.0 °F 41.0 °F 30.9 °F 56% 30.22 in 10.0 mi NW 10.4 mph 16.1 mph N/A   Overcast
2:53 PM 42.1 °F 33.9 °F 33.1 °F 70% 30.23 in 10.0 mi NW 17.3 mph 27.6 mph 0.00 in   Overcast
3:53 PM 42.1 °F 37.1 °F 36.0 °F 79% 30.22 in 10.0 mi NW 8.1 mph - 0.00 in   Overcast
4:53 PM 43.0 °F 39.5 °F 34.0 °F 71% 30.20 in 10.0 mi WNW 5.8 mph - N/A   Overcast
5:53 PM 43.0 °F 39.5 °F 33.1 °F 68% 30.19 in 10.0 mi Variable 5.8 mph - N/A   Overcast
6:53 PM 41.0 °F 37.1 °F 33.1 °F 73% 30.19 in 10.0 mi West 5.8 mph - N/A   Partly Cloudy
7:53 PM 37.9 °F 33.5 °F 33.1 °F 83% 30.21 in 10.0 mi West 5.8 mph - N/A   Clear
8:53 PM 35.1 °F 29.3 °F 32.0 °F 89% 30.21 in 10.0 mi WSW 6.9 mph - N/A   Clear
9:53 PM 35.1 °F 30.1 °F 32.0 °F 89% 30.21 in 10.0 mi West 5.8 mph - N/A   Clear
10:53 PM 33.1 °F 28.7 °F 30.0 °F 89% 30.21 in 10.0 mi WSW 4.6 mph - N/A   Clear
11:53 PM 32.0 °F 27.5 °F 30.0 °F 92% 30.20 in 10.0 mi WSW 4.6 mph - N/A   Clear